Content
SEND FEEDBACK

Daily
Averages
Monthly
Summary
Mexico

PUEBLA, PUEBLA


Home > North America > Mexico > Puebla
Elevation: 7104 feet     Latitude: 19 02N     Longitude: 098 12W

WEATHER
 
SELECT A DAY
Number of Records: 125,466;   Date Range: 1/1/95 - 12/19/14
 
SHARE

PRINT THIS DATA

[ ← Previous Day ]
WEATHER ALMANAC - JUNE 24, 2013
[ Next Day → ]
[ °C ]   °F
We're sorry. There is no daily almanac available for Puebla, Puebla on June 24, 2013.
WEATHER BY HOUR - JUNE 24, 2013
[ °C ]   °F
Local TimeTemperatureDewpointHumidityBarometerVisibilityWind DirectionWind SpeedGust SpeedPrecipitationEventsConditions
3:55 AM59.0 °F54.0 °F77 %29.87 in3.0 miCalmPartly Cloudy
5:50 AM55.4 °F51.8 °F88 %30.32 in6.0 miWSW (250°)3.5 mphMostly Cloudy
6:43 AM53.6 °F50.0 °F88 %30.33 in7.0 miCalmMostly Cloudy
7:41 AM57.2 °F53.6 °F88 %30.35 in6.0 miNE (50°)2.3 mphMostly Cloudy
8:44 AM62.6 °F53.6 °F72 %30.36 in7.0 miCalmMostly Cloudy
9:40 AM64.0 °F50.0 °F51 %29.94 in12.0 miENE (70°)2.2 mphScattered Clouds
9:41 AM64.4 °F53.6 °F68 %30.39 in7.0 miSE (130°)4.6 mphMostly Cloudy
10:42 AM66.2 °F53.6 °F64 %30.39 in8.0 miSSW (200°)5.8 mphMostly Cloudy
11:40 AM68.0 °F53.6 °F60 %30.38 in9.0 miESE (110°)4.6 mphScattered Clouds
12:40 PM72.0 °F47.0 °F29 %29.91 in12.0 miESE (110°)2.2 mphPartly Cloudy
12:42 PM73.4 °F50.0 °F44 %30.37 in10.0 miSSE (160°)13.8 mphMostly Cloudy
1:41 PM73.4 °F50.0 °F44 %30.35 in11.0 miSouth (180°)11.5 mphMostly Cloudy
2:46 PM77.0 °F48.2 °F36 %30.32 in10.0 miSouth (180°)15.0 mphMostly Cloudy
3:40 PM71.6 °F50.0 °F46 %30.30 in6.0 miSE (140°)12.7 mphMostly Cloudy
3:40 PM73.0 °F45.0 °F26 %29.79 in12.0 miESE (110°)6.7 mphMostly Cloudy
4:16 PM60.8 °F55.4 °F82 %30.30 in6.0 miNE (50°)13.8 mphRainLight Rain
4:43 PM60.8 °F53.6 °F77 %30.30 in6.0 miNE (50°)16.1 mphRainLight Rain
5:44 PM66.2 °F55.4 °F68 %30.29 in8.0 miCalmOvercast
6:40 PM72.0 °F47.0 °F29 %29.72 in12.0 miEast (90°)2.2 mphMostly Cloudy
6:49 PM60.8 °F57.2 °F88 %30.31 in6.0 miNorth (350°)8.1 mphMostly Cloudy
7:23 PM59.0 °F55.4 °F88 %30.33 in4.0 miNNE (30°)8.1 mphRainRain
7:50 PM60.8 °F55.4 °F82 %30.33 in7.0 miCalmOvercast
8:43 PM59.0 °F55.4 °F88 %30.35 in8.0 miNorth (350°)4.6 mphOvercast
9:44 PM59.0 °F55.4 °F88 %30.37 in8.0 miNE (40°)2.3 mphMostly Cloudy
9:50 PM65.0 °F47.0 °F41 %29.79 in3.0 miCalmMostly Cloudy
10:42 PM57.2 °F55.4 °F94 %30.39 in8.0 miNNE (20°)2.3 mphMostly Cloudy
11:40 PM59.0 °F55.4 °F88 %30.39 in8.0 miWest (270°)2.3 mphMostly Cloudy
Hourly data recorded from MMPB, located miles away from Puebla, Puebla







STORIES FROM OUR PARTNERS